Weather History for PHKO - July, 2013

Change the Weather History Date:

Thursday, July 4, 2013

  Actual Average Record
Temperature  
Mean Temperature 80 °F -  
Max Temperature 84 °F 82 °F 91 °F (1983)
Min Temperature 75 °F 72 °F 70 °F (1999)
Cooling Degree Days 14    
Growing Degree Days 30 (Base 50)    
Moisture  
Dew Point 68 °F    
Average Humidity 68    
Maximum Humidity 74    
Minimum Humidity 58    
Precipitation  
Precipitation 0.00 in - - ()
Sea Level Pressure  
Sea Level Pressure 29.98 in    
Wind  
Wind Speed 5 mph (SW)    
Max Wind Speed 13 mph    
Max Gust Speed -    
Visibility 10 miles    
Events      
Averages and records for this station are not official NWS values.
T = Trace of Precipitation, MM = Missing Value Source: NWS Daily Summary

Daily Weather History Graph

Daily Weather History Graph

Search for Another Location

Airport or City:

Trip Planner

Search our weather history database for the weather conditions in past years. The results will help you decide how hot, cold, wet, or windy it might be!

Date:

Astronomy

Jul. 04, 2013 Rise Set
Actual Time 5:50 AM HST 7:07 PM HST
Civil Twilight 5:25 AM HST 7:31 PM HST
Nautical Twilight 4:56 AM HST 8:00 PM HST
Astronomical Twilight 4:26 AM HST 8:30 PM HST
Moon 3:05 AM HST (7/4) 4:28 PM HST (7/4)
Length of Visible Light 14h 06m
Length of Day
13h 17m
Waning Crescent, 10% of the Moon is Illuminated
Jul 4
Waning Crescent
Jul 7
New
Jul 15
First Quarter
Jul 22
Full
Jul 29
Last Quarter

Hourly Weather History & Observations

Time (HST) Temp. Heat Index Dew Point Humidity Pressure Visibility Wind Dir Wind Speed Gust Speed Precip Events Conditions
12:23 AM 78.8 °F - 69.8 °F 74% 29.98 in 10.0 mi SSW 4.6 mph - N/A   Mostly Cloudy
12:53 AM 78.1 °F - 68.0 °F 71% 29.97 in 10.0 mi SSW 4.6 mph - N/A   Mostly Cloudy
1:41 AM 78.8 °F - 68.0 °F 69% 29.96 in 10.0 mi Calm Calm - N/A   Mostly Cloudy
1:53 AM 78.1 °F - 69.1 °F 74% 29.96 in 10.0 mi Calm Calm - N/A   Mostly Cloudy
2:53 AM 78.1 °F - 68.0 °F 71% 29.95 in 10.0 mi Calm Calm - N/A   Mostly Cloudy
3:53 AM 77.0 °F - 66.9 °F 71% 29.95 in 10.0 mi Calm Calm - N/A   Partly Cloudy
4:53 AM 75.9 °F - 66.9 °F 74% 29.95 in 10.0 mi East 3.5 mph - N/A   Clear
5:53 AM 77.0 °F - 66.0 °F 69% 29.96 in 10.0 mi ENE 3.5 mph - N/A   Overcast
6:53 AM 78.1 °F - 66.9 °F 68% 29.98 in 10.0 mi NNE 3.5 mph - N/A   Mostly Cloudy
7:53 AM 79.0 °F - 70.0 °F 74% 29.99 in 10.0 mi NW 6.9 mph - N/A   Clear
8:53 AM 80.1 °F 82.7 °F 68.0 °F 67% 30.00 in 10.0 mi WNW 6.9 mph - N/A   Clear
9:53 AM 81.0 °F 84.1 °F 69.1 °F 67% 30.00 in 10.0 mi WNW 9.2 mph - N/A   Clear
10:53 AM 82.0 °F 85.5 °F 69.1 °F 65% 29.99 in 10.0 mi WNW 11.5 mph - N/A   Clear
11:53 AM 84.9 °F 89.4 °F 70.0 °F 61% 29.99 in 10.0 mi West 11.5 mph - N/A   Clear
12:53 PM 84.9 °F 88.8 °F 69.1 °F 59% 29.98 in 10.0 mi West 12.7 mph - N/A   Clear
1:53 PM 82.9 °F 86.5 °F 69.1 °F 63% 29.97 in 10.0 mi West 9.2 mph - N/A   Mostly Cloudy
2:53 PM 84.0 °F 87.8 °F 69.1 °F 61% 29.96 in 10.0 mi WSW 10.4 mph - N/A   Mostly Cloudy
3:53 PM 84.0 °F 87.0 °F 68.0 °F 58% 29.96 in 10.0 mi SW 9.2 mph - N/A   Partly Cloudy
4:53 PM 82.9 °F 85.8 °F 68.0 °F 60% 29.96 in 10.0 mi WSW 6.9 mph - N/A   Mostly Cloudy
5:53 PM 82.0 °F 84.9 °F 68.0 °F 62% 29.96 in 10.0 mi SW 8.1 mph - N/A   Overcast
6:53 PM 81.0 °F 83.8 °F 68.0 °F 65% 29.98 in 10.0 mi SSW 6.9 mph - N/A   Clear
7:53 PM 80.1 °F 82.9 °F 69.1 °F 69% 29.99 in 10.0 mi South 9.2 mph - N/A   Overcast
8:53 PM 80.1 °F 82.9 °F 69.1 °F 69% 30.00 in 10.0 mi South 8.1 mph - N/A   Overcast
9:53 PM 80.1 °F 82.9 °F 69.1 °F 69% 30.01 in 10.0 mi SSE 9.2 mph - N/A   Overcast
10:53 PM 78.1 °F - 69.1 °F 74% 30.02 in 10.0 mi SE 9.2 mph - N/A   Clear
11:53 PM 77.0 °F - 68.0 °F 74% 30.01 in 10.0 mi ESE 6.9 mph - N/A   Clear